Iguazu Aerodrome, Argentina

12:07 AM -03 on January 18, 2018 (GMT -0300)
Iguazu Aerodrome

Weather History for 87097 - September, 2013

Change the Weather History Date:

Friday, September 6, 2013

  Actual Average Record
Temperature  
Mean Temperature 72 °F -  
Max Temperature 85 °F 77 °F - ()
Min Temperature 59 °F 55 °F - ()
Cooling Degree Days 7    
Growing Degree Days 22 (Base 50)    
Moisture  
Dew Point 63 °F    
Average Humidity 75    
Maximum Humidity 100    
Minimum Humidity 39    
Precipitation  
Precipitation 0.00 in - - ()
Sea Level Pressure  
Sea Level Pressure 30.09 in    
Wind  
Wind Speed 5 mph ()    
Max Wind Speed 14 mph    
Max Gust Speed -    
Visibility 8.7 miles    
Events      
T = Trace of Precipitation, MM = Missing Value Source: Averaged Metar Reports

Daily Weather History Graph

Daily Weather History Graph

Search for Another Location

Airport or City:

Trip Planner

Search our weather history database for the weather conditions in past years. The results will help you decide how hot, cold, wet, or windy it might be!

Date:

Astronomy

Sep. 06, 2013 Rise Set
Actual Time 6:44 AM -03 6:27 PM -03
Civil Twilight 6:21 AM -03 6:50 PM -03
Nautical Twilight 5:55 AM -03 7:17 PM -03
Astronomical Twilight 5:28 AM -03 7:44 PM -03
Moon 7:09 AM -03 (9/6) 7:41 PM -03 (9/6)
Length of Visible Light 12h 29m
Length of Day
11h 43m
New Moon, 1% of the Moon is Illuminated
Sep 6
New Moon
Sep 12
First Quarter
Sep 19
Full
Sep 27
Last Quarter
Oct 4
New

Hourly Weather History & Observations

Time (-03) Temp. Heat Index Dew Point Humidity Pressure Visibility Wind Dir Wind Speed Gust Speed Precip Events Conditions
12:00 AM 64.4 °F - 64.4 °F 100% 30.09 in - Calm Calm - N/A   Clear
1:00 AM 64.4 °F - 62.6 °F 94% 30.09 in - Calm Calm - N/A   Clear
2:00 AM 64.4 °F - 62.6 °F 94% 30.09 in - NE 5.8 mph - N/A   Clear
3:00 AM 64.4 °F - 62.6 °F 94% 30.09 in - NE 5.8 mph - N/A   Clear
4:00 AM 64.4 °F - 62.6 °F 94% 30.09 in - NE 5.8 mph - N/A   Clear
5:00 AM 62.6 °F - 60.8 °F 94% 30.09 in - NE 6.9 mph - N/A   Clear
6:00 AM 60.8 °F - 59.0 °F 94% 30.12 in - NE 8.1 mph - N/A   Clear
7:00 AM 59.0 °F - 59.0 °F 100% 30.15 in - NE 5.8 mph - N/A   Clear
8:00 AM 62.6 °F - 59.0 °F 88% 30.18 in - NE 8.1 mph - N/A   Clear
9:00 AM 67 °F - 60 °F 71% 30.14 in 12 mi NE 10.4 mph - -  
9:00 AM 66.2 °F - 59.0 °F 78% 30.18 in - NE 10.4 mph - N/A   Clear
10:00 AM 69.8 °F - 60.8 °F 73% 30.18 in - NE 9.2 mph - N/A   Clear
11:00 AM 75.2 °F - 60.8 °F 61% 30.18 in - NE 13.8 mph - N/A   Clear
12:00 PM 77.0 °F - 62.6 °F 61% 30.15 in - NNE 11.5 mph - N/A   Clear
1:00 PM 78.8 °F - 62.6 °F 57% 30.12 in - NE 6.9 mph - N/A   Clear
2:00 PM 82.4 °F 83.9 °F 64.4 °F 54% 30.09 in 6.2 mi NNE 8.1 mph - N/A   Partly Cloudy
3:00 PM 84 °F - 63 °F 39% 30.00 in 12 mi NE 5.8 mph - -   Scattered Clouds
3:00 PM 84.2 °F 85.0 °F 62.6 °F 48% 30.06 in 6.2 mi NE 5.8 mph - N/A   Partly Cloudy
4:00 PM 84.2 °F 85.6 °F 64.4 °F 51% 30.04 in 6.2 mi NE 5.8 mph - N/A   Scattered Clouds
5:00 PM 84.2 °F 85.6 °F 64.4 °F 51% 30.04 in 6.2 mi NE 8.1 mph - N/A   Partly Cloudy
6:00 PM 82.4 °F 84.6 °F 66.2 °F 58% 30.04 in - Calm Calm - N/A   Clear
7:00 PM 77.0 °F - 66.2 °F 69% 30.04 in - Calm Calm - N/A   Clear
8:00 PM 73.4 °F - 64.4 °F 73% 30.04 in - Calm Calm - N/A   Clear
9:00 PM 71 °F - 65 °F 76% 29.99 in 12 mi Calm Calm - -  
9:00 PM 71.6 °F - 64.4 °F 78% 30.04 in - Calm Calm - N/A   Clear
10:00 PM 69.8 °F - 68.0 °F 94% 30.04 in - East 4.6 mph - N/A   Clear
11:00 PM 68.0 °F - 64.4 °F 88% 30.04 in - East 3.5 mph - N/A   Clear